CW8690 Weather Reports


Display with metric or nautical units.
time (UTC)temp
F
wind
direction
speed
MPH
gust
MPH
rain 1hr
in
rain 24hr
in
rain mn
in
humidity
%
barometer
mb
20260504081134 68 119 0.0 1.0 0.00 0.00 0.00 92 1014.0
20260504045627 67 111 0.0 0.0 0.00 0.00 0.00 89 1016.4
20260504044123 68 111 0.0 0.0 0.00 0.00 0.00 88 1016.4
20260504042622 68 111 0.0 0.0 0.00 0.00 0.00 87 1016.7
20260504041121 68 111 0.0 0.0 0.00 0.00 0.00 87 1016.6
20260504035621 69 111 0.0 0.0 0.00 0.00 0.00 86 1016.5
20260504034143 69 111 0.0 0.0 0.00 0.00 0.00 86 1016.5
20260504032657 69 111 1.0 3.0 0.00 0.00 0.00 85 1016.3
20260504031131 69 103 1.0 2.0 0.00 0.00 0.00 85 1016.3
20260504025623 69 103 2.0 3.0 0.00 0.00 0.00 84 1016.3
20260504024124 69 104 2.0 4.0 0.00 0.00 0.00 82 1016.3
20260504022622 70 104 1.0 4.0 0.00 0.00 0.00 82 1016.1
20260504021142 70 104 2.0 3.0 0.00 0.00 0.00 81 1016.0
20260504015620 71 92 1.0 3.0 0.00 0.00 0.00 79 1015.9
20260504014118 71 98 2.0 4.0 0.00 0.00 0.00 78 1016.0
20260504012642 72 87 3.0 6.0 0.00 0.00 0.00 77 1016.1
20260504011134 73 94 3.0 9.0 0.00 0.00 0.00 75 1016.0
20260504005622 73 80 6.0 10.0 0.00 0.00 0.00 74 1016.0
20260504004124 74 91 4.0 12.0 0.00 0.00 0.00 72 1015.8
20260504002645 75 96 5.0 13.0 0.00 0.00 0.00 71 1015.5
20260504001143 75 82 6.0 10.0 0.00 0.00 0.00 70 1015.5
20260503235624 76 88 3.0 13.0 0.00 0.00 0.00 68 1015.6
20260503234121 77 94 6.0 12.0 0.00 0.00 0.00 67 1015.6
20260503232640 77 70 7.0 13.0 0.00 0.00 0.00 66 1015.7
20260503231147 77 69 6.0 13.0 0.00 0.00 0.00 65 1015.9
20260503225626 78 63 8.0 13.0 0.00 0.00 0.00 64 1016.0
20260503224126 78 86 6.0 14.0 0.00 0.00 0.00 65 1016.1
20260503222650 78 117 4.0 14.0 0.00 0.00 0.00 64 1016.2
20260503221128 79 159 4.0 11.0 0.00 0.00 0.00 62 1016.4
20260503215631 79 83 4.0 11.0 0.00 0.00 0.00 60 1016.8
20260503214128 80 57 6.0 14.0 0.00 0.00 0.00 60 1016.7
20260503212651 79 107 7.0 14.0 0.00 0.00 0.00 60 1016.7
20260503211125 79 101 5.0 12.0 0.00 0.00 0.00 58 1016.8
20260503205627 79 94 7.0 14.0 0.00 0.00 0.00 58 1017.2
20260503204125 79 63 3.0 10.0 0.00 0.00 0.00 60 1017.5
20260503202625 79 76 4.0 11.0 0.00 0.00 0.00 58 1017.9
20260503201121 81 110 7.0 15.0 0.00 0.00 0.00 59 1018.2
20260503195617 81 114 8.0 14.0 0.00 0.00 0.00 57 1018.4
20260503194117 80 97 8.0 14.0 0.00 0.00 0.00 58 1018.5
20260503192619 80 26 5.0 14.0 0.00 0.00 0.00 59 1018.6
20260503191137 79 80 7.0 14.0 0.00 0.00 0.00 58 1018.7
20260503185621 80 90 1.0 13.0 0.00 0.00 0.00 62 1019.1
20260503184137 81 104 3.0 13.0 0.00 0.00 0.00 59 1019.2
20260503182619 80 72 4.0 10.0 0.00 0.00 0.00 61 1019.3
20260503181121 79 113 5.0 13.0 0.00 0.00 0.00 60 1019.6
20260503175618 79 82 5.0 10.0 0.00 0.00 0.00 59 1020.0
20260503174158 81 59 5.0 15.0 0.00 0.00 0.00 59 1019.9
20260503171141 80 115 7.0 14.0 0.00 0.00 0.00 61 1020.3
20260503131118 65 310 1.0 3.0 0.00 0.00 0.00 85 1019.5